TimeEDT,TemperatureF,Dew PointF,Humidity,Sea Level PressureIn,VisibilityMPH,Wind Direction,Wind SpeedMPH,Gust SpeedMPH,PrecipitationIn,Events,Conditions,WindDirDegrees,DateUTC
12:15 AM,43.5,36.5,76,30.10,10.0,NW,3.5,-,N/A,,Clear,310,2013-05-17 04:15:00
12:34 AM,41.4,36.1,82,30.10,10.0,West,3.5,-,N/A,,Clear,270,2013-05-17 04:34:00
12:55 AM,40.6,35.4,82,30.11,10.0,Calm,Calm,-,N/A,,Clear,0,2013-05-17 04:55:00
1:15 AM,38.7,34.9,86,30.10,10.0,Calm,Calm,-,N/A,,Clear,0,2013-05-17 05:15:00
1:35 AM,39.0,35.1,86,30.10,10.0,Calm,Calm,-,N/A,,Clear,0,2013-05-17 05:35:00
1:55 AM,39.7,35.8,86,30.10,10.0,Calm,Calm,-,N/A,,Clear,0,2013-05-17 05:55:00
2:15 AM,39.2,35.2,86,30.10,10.0,Calm,Calm,-,N/A,,Clear,0,2013-05-17 06:15:00
2:35 AM,37.2,34.2,89,30.11,10.0,Calm,Calm,-,N/A,,Clear,0,2013-05-17 06:35:00
2:55 AM,36.0,33.3,90,30.12,10.0,SW,3.5,-,N/A,,Clear,230,2013-05-17 06:55:00
3:14 AM,35.8,33.3,91,30.12,10.0,Calm,Calm,-,N/A,,Clear,0,2013-05-17 07:14:00
3:35 AM,36.0,33.6,91,30.13,10.0,Calm,Calm,-,N/A,,Clear,0,2013-05-17 07:35:00
3:55 AM,36.9,34.7,92,30.13,10.0,SW,3.5,-,N/A,,Clear,220,2013-05-17 07:55:00
4:14 AM,36.9,34.7,92,30.13,10.0,Calm,Calm,-,N/A,,Clear,0,2013-05-17 08:14:00
4:35 AM,37.4,34.9,91,30.14,10.0,Calm,Calm,-,N/A,,Clear,0,2013-05-17 08:35:00
4:55 AM,36.0,33.6,91,30.14,10.0,Calm,Calm,-,N/A,,Clear,0,2013-05-17 08:55:00
5:15 AM,35.8,34.0,93,30.13,10.0,Calm,Calm,-,N/A,,Clear,0,2013-05-17 09:15:00
5:35 AM,35.4,33.3,92,30.14,10.0,SW,3.5,-,N/A,,Clear,220,2013-05-17 09:35:00
5:55 AM,34.7,32.7,92,30.14,10.0,South,3.5,-,N/A,,Clear,180,2013-05-17 09:55:00
6:15 AM,36.0,33.8,92,30.15,10.0,Calm,Calm,-,N/A,,Clear,0,2013-05-17 10:15:00
6:35 AM,37.2,35.1,92,30.16,10.0,Calm,Calm,-,N/A,,Clear,0,2013-05-17 10:35:00
6:55 AM,43.3,39.4,86,30.17,10.0,SSE,4.6,-,N/A,,Clear,160,2013-05-17 10:55:00
7:15 AM,45.0,39.2,80,30.17,10.0,Calm,Calm,-,N/A,,Clear,0,2013-05-17 11:15:00
7:35 AM,46.2,39.6,78,30.18,10.0,South,5.8,-,N/A,,Clear,190,2013-05-17 11:35:00
8:15 AM,48.2,39.9,73,30.19,10.0,SSE,4.6,-,N/A,,Clear,150,2013-05-17 12:15:00
8:34 AM,49.6,40.1,70,30.20,10.0,SE,3.5,-,N/A,,Clear,140,2013-05-17 12:34:00
8:55 AM,50.0,41.0,71,30.20,10.0,East,5.8,-,N/A,,Clear,100,2013-05-17 12:55:00
9:15 AM,50.0,42.3,75,30.22,10.0,Calm,Calm,-,N/A,,Clear,0,2013-05-17 13:15:00
9:35 AM,52.7,41.4,65,30.21,10.0,SE,4.6,-,N/A,,Clear,140,2013-05-17 13:35:00
9:55 AM,53.8,42.4,65,30.21,10.0,East,3.5,-,N/A,,Clear,100,2013-05-17 13:55:00
10:15 AM,51.3,43.5,75,30.22,10.0,NNE,3.5,-,N/A,,Clear,20,2013-05-17 14:15:00
10:35 AM,51.4,43.2,73,30.22,10.0,North,5.8,-,N/A,,Clear,10,2013-05-17 14:35:00
10:55 AM,50.9,42.8,74,30.23,10.0,NE,3.5,-,N/A,,Clear,40,2013-05-17 14:55:00
11:15 AM,52.3,43.3,71,30.24,10.0,NNE,3.5,-,N/A,,Clear,30,2013-05-17 15:15:00
11:35 AM,51.4,42.6,72,30.24,10.0,NE,5.8,-,N/A,,Clear,50,2013-05-17 15:35:00
11:55 AM,50.7,42.6,74,30.24,10.0,North,4.6,-,N/A,,Clear,10,2013-05-17 15:55:00
12:14 PM,52.9,43.5,71,30.24,10.0,NNE,3.5,-,N/A,,Clear,30,2013-05-17 16:14:00
12:35 PM,54.1,44.1,69,30.24,10.0,North,5.8,-,N/A,,Clear,360,2013-05-17 16:35:00
12:55 PM,55.0,43.2,64,30.23,10.0,NE,9.2,-,N/A,,Clear,50,2013-05-17 16:55:00
1:15 PM,57.2,43.3,60,30.23,10.0,SSE,9.2,-,N/A,,Clear,160,2013-05-17 17:15:00
1:35 PM,62.2,39.7,44,30.23,10.0,SSE,11.5,-,N/A,,Clear,150,2013-05-17 17:35:00
1:54 PM,62.2,38.3,41,30.22,10.0,SE,9.2,17.3,N/A,,Clear,140,2013-05-17 17:54:00
2:15 PM,62.4,38.3,41,30.22,10.0,SE,10.4,-,N/A,,Clear,140,2013-05-17 18:15:00
2:34 PM,63.1,38.7,40,30.22,10.0,SE,5.8,-,N/A,,Clear,130,2013-05-17 18:34:00
3:15 PM,62.8,39.0,42,30.22,7.0,SE,9.2,-,N/A,,Clear,130,2013-05-17 19:15:00
3:35 PM,62.4,40.5,44,30.21,10.0,East,9.2,-,N/A,,Clear,90,2013-05-17 19:35:00
3:55 PM,62.8,40.8,45,30.20,7.0,East,9.2,-,N/A,,Clear,90,2013-05-17 19:55:00
4:14 PM,62.8,39.7,43,30.20,10.0,SE,8.1,18.4,N/A,,Clear,140,2013-05-17 20:14:00
4:35 PM,64.0,38.5,39,30.20,10.0,SSE,9.2,-,N/A,,Clear,150,2013-05-17 20:35:00
4:55 PM,63.3,37.8,39,30.20,10.0,SE,8.1,-,N/A,,Clear,140,2013-05-17 20:55:00
5:15 PM,63.7,37.6,38,30.20,7.0,SE,10.4,-,N/A,,Clear,130,2013-05-17 21:15:00
5:35 PM,63.5,36.9,37,30.20,10.0,SE,9.2,-,N/A,,Clear,140,2013-05-17 21:35:00
5:55 PM,63.5,37.6,38,30.20,10.0,SE,9.2,-,N/A,,Clear,140,2013-05-17 21:55:00
6:15 PM,61.7,36.7,39,30.20,10.0,SSE,9.2,-,N/A,,Scattered Clouds,160,2013-05-17 22:15:00
6:35 PM,61.2,39.2,44,30.20,10.0,ESE,11.5,-,N/A,,Mostly Cloudy,110,2013-05-17 22:35:00
6:54 PM,58.6,38.7,47,30.19,10.0,East,11.5,-,N/A,,Mostly Cloudy,90,2013-05-17 22:54:00
7:15 PM,57.7,39.0,50,30.19,10.0,East,10.4,-,N/A,,Mostly Cloudy,90,2013-05-17 23:15:00
7:35 PM,58.1,39.4,50,30.20,10.0,East,9.2,-,N/A,,Scattered Clouds,100,2013-05-17 23:35:00
7:54 PM,57.2,38.1,49,30.19,10.0,ESE,10.4,-,N/A,,Mostly Cloudy,110,2013-05-17 23:54:00
8:15 PM,56.5,37.4,49,30.19,10.0,ESE,6.9,-,N/A,,Scattered Clouds,110,2013-05-18 00:15:00
8:34 PM,56.3,36.9,48,30.19,10.0,ESE,10.4,-,N/A,,Scattered Clouds,120,2013-05-18 00:34:00
8:55 PM,55.4,36.9,50,30.19,10.0,ESE,5.8,-,N/A,,Clear,120,2013-05-18 00:55:00
9:15 PM,54.9,36.5,50,30.19,10.0,ESE,8.1,-,N/A,,Scattered Clouds,120,2013-05-18 01:15:00
9:35 PM,54.7,37.0,51,30.20,10.0,ESE,6.9,-,N/A,,Overcast,120,2013-05-18 01:35:00
9:55 PM,54.5,37.6,53,30.20,10.0,SE,4.6,-,N/A,,Overcast,140,2013-05-18 01:55:00
10:15 PM,53.6,37.4,54,30.21,10.0,SSE,6.9,-,N/A,,Overcast,150,2013-05-18 02:15:00
10:35 PM,53.4,37.8,55,30.22,10.0,SSE,4.6,-,N/A,,Overcast,150,2013-05-18 02:35:00
10:55 PM,52.7,38.3,58,30.22,10.0,SSE,3.5,-,N/A,,Overcast,160,2013-05-18 02:55:00
11:15 PM,52.2,38.5,60,30.22,10.0,South,4.6,-,N/A,,Overcast,170,2013-05-18 03:15:00
11:35 PM,51.6,38.8,62,30.22,10.0,South,5.8,-,N/A,,Overcast,180,2013-05-18 03:35:00
11:55 PM,51.1,39.0,63,30.22,10.0,South,4.6,-,N/A,,Mostly Cloudy,170,2013-05-18 03:55:00